South Hill, VA

1:45 AM EST on December 07, 2019 (GMT -0500)
Mecklenburg-Brunswick Regional

Weather History for KAVC - September, 2019

Change the Weather History Date:

Tuesday, September 17, 2019

  Actual Average (WUND) Record (WUND)
Temperature  
Mean Temperature 73 °F -  
Max Temperature 84 °F - - (-1)
Min Temperature 63 °F - - (-1)
Cooling Degree Days 8    
Growing Degree Days 23 (Base 50)    
Moisture  
Dew Point 67 °F    
Average Humidity 91    
Maximum Humidity 100    
Minimum Humidity 56    
Precipitation  
Precipitation 0.04 in - - ()
Sea Level Pressure  
Sea Level Pressure 30.08 in    
Wind  
Wind Speed 2 mph (NE)    
Max Wind Speed 10 mph    
Max Gust Speed 17 mph    
Averages and records for this station are not official NWS values.
T = Trace of Precipitation, MM = Missing Value Source: NWS Daily Summary

Daily Weather History Graph

Daily Weather History Graph

Search for Another Location

Airport or City:

Astronomy

Sep. 17, 2019 Rise Set
Actual Time 6:55 AM EDT 7:17 PM EDT
Civil Twilight 6:29 AM EDT 7:42 PM EDT
Nautical Twilight 5:59 AM EDT 8:13 PM EDT
Astronomical Twilight 5:28 AM EDT 8:44 PM EDT
Moon 9:23 PM EDT (9/17) 9:54 AM EDT (9/17)
Length of Visible Light 13h 12m
Length of Day
12h 21m
Waning Gibbous, 89% of the Moon is Illuminated
Sep 17
Waning Gibbous
Sep 21
Last Quarter
Sep 28
New
Oct 5
First Quarter
Oct 13
Full

Hourly Weather History & Observations

Time (EDT) Temp. Heat Index Dew Point Humidity Pressure Visibility Wind Dir Wind Speed Gust Speed Precip Events Conditions
12:15 AM 68.4 °F - 67.5 °F 97% 30.05 in - Calm Calm - N/A   Unknown
12:35 AM 67.3 °F - 67.1 °F 99% 30.05 in - Calm Calm - N/A   Unknown
12:55 AM 66.2 °F - 66.2 °F 100% 30.05 in - Calm Calm - N/A   Unknown
1:35 AM 68.0 °F - 67.8 °F 99% 30.05 in - Calm Calm - N/A   Unknown
1:55 AM 67.6 °F - 67.6 °F 100% 30.05 in - Calm Calm - N/A   Unknown
2:15 AM 65.7 °F - 65.7 °F 100% 30.04 in - Calm Calm - N/A   Unknown
2:35 AM 65.8 °F - 65.8 °F 100% 30.04 in - Calm Calm - N/A   Unknown
2:55 AM 65.1 °F - 65.1 °F 100% 30.03 in - Calm Calm - N/A   Unknown
3:15 AM 65.8 °F - 65.8 °F 100% 30.03 in - Calm Calm - N/A   Unknown
3:35 AM 64.8 °F - 64.8 °F 100% 30.02 in - Calm Calm - N/A   Unknown
3:55 AM 64.6 °F - 64.6 °F 100% 30.03 in - Calm Calm - N/A   Unknown
4:20 AM 65.3 °F - 65.3 °F 100% 30.03 in - Calm Calm - N/A   Unknown
4:35 AM 65.5 °F - 65.5 °F 100% 30.03 in - Calm Calm - N/A   Unknown
4:55 AM 63.3 °F - 63.3 °F 100% 30.02 in - Calm Calm - N/A   Unknown
5:15 AM 64.6 °F - 64.6 °F 100% 30.02 in - Calm Calm - N/A   Unknown
5:35 AM 64.4 °F - 64.4 °F 100% 30.03 in - Calm Calm - N/A   Unknown
5:55 AM 64.8 °F - 64.8 °F 100% 30.03 in - Calm Calm - N/A   Unknown
6:15 AM 64.0 °F - 64.0 °F 100% 30.03 in - Calm Calm - N/A   Unknown
6:35 AM 64.2 °F - 64.2 °F 100% 30.04 in - Calm Calm - N/A   Unknown
6:55 AM 63.7 °F - 63.7 °F 100% 30.04 in - Calm Calm - N/A   Unknown
7:15 AM 63.7 °F - 63.7 °F 100% 30.05 in - North 4.6 mph - N/A   Unknown
7:35 AM 64.2 °F - 64.2 °F 100% 30.05 in - Calm Calm - N/A   Unknown
7:55 AM 66.2 °F - 66.2 °F 100% 30.07 in - Calm Calm - N/A   Unknown
8:15 AM 67.5 °F - 67.5 °F 100% 30.07 in - Calm Calm - N/A   Unknown
8:35 AM 69.1 °F - 69.1 °F 100% 30.08 in - Calm Calm - N/A   Unknown
8:55 AM 71.4 °F - 70.2 °F 96% 30.08 in - Calm Calm - N/A   Unknown
9:15 AM 73.6 °F - 70.5 °F 90% 30.09 in - East 3.5 mph - N/A   Unknown
9:35 AM 73.9 °F - 69.4 °F 86% 30.09 in - NE 4.6 mph - N/A   Unknown
9:55 AM 75.4 °F - 69.1 °F 81% 30.09 in - Calm Calm - N/A   Scattered Clouds
10:15 AM 76.6 °F - 68.4 °F 75% 30.09 in - NNE 3.5 mph - N/A   Clear
10:35 AM 77.4 °F - 68.0 °F 73% 30.09 in - SE 3.5 mph - N/A   Clear
10:55 AM 79.0 °F - 68.4 °F 70% 30.09 in - ENE 3.5 mph - N/A   Clear
11:15 AM 79.7 °F - 68.0 °F 67% 30.10 in - SSE 4.6 mph - N/A   Clear
11:35 AM 81.5 °F 84.2 °F 68.0 °F 63% 30.10 in - NNE 5.8 mph - N/A   Scattered Clouds
11:55 AM 81.9 °F 84.1 °F 66.4 °F 59% 30.10 in - NNE 4.6 mph - N/A   Scattered Clouds
12:15 PM 83.5 °F 85.7 °F 66.2 °F 56% 30.09 in - ENE 4.6 mph 16.1 mph N/A   Scattered Clouds
12:35 PM 83.8 °F 86.5 °F 67.3 °F 57% 30.09 in - NE 6.9 mph - N/A   Mostly Cloudy
12:55 PM 82.6 °F 85.3 °F 67.5 °F 60% 30.09 in - NNE 6.9 mph - N/A   Mostly Cloudy
1:15 PM 82.4 °F 85.4 °F 68.2 °F 62% 30.08 in - NNE 4.6 mph - N/A   Mostly Cloudy
1:35 PM 82.2 °F 85.3 °F 68.4 °F 63% 30.09 in - Calm Calm - N/A   Mostly Cloudy
1:55 PM 81.1 °F 84.0 °F 68.5 °F 65% 30.09 in - NE 3.5 mph - N/A   Overcast
2:15 PM 80.4 °F 83.4 °F 69.1 °F 68% 30.08 in - NE 3.5 mph - N/A   Overcast
2:35 PM 81.5 °F 84.8 °F 69.3 °F 66% 30.08 in - ENE 3.5 mph - N/A   Overcast
2:55 PM 80.2 °F 83.2 °F 69.3 °F 69% 30.08 in - ENE 4.6 mph - N/A   Overcast
3:15 PM 80.4 °F 83.2 °F 68.7 °F 67% 30.07 in - North 6.9 mph - N/A   Overcast
3:35 PM 77.5 °F - 68.4 °F 73% 30.09 in - NNE 10.4 mph 16.1 mph N/A   Overcast
3:55 PM 71.6 °F - 71.2 °F 99% 30.10 in - NNE 10.4 mph 17.3 mph 0.02 in   Unknown
4:15 PM 70.3 °F - 70.3 °F 100% 30.09 in - NNE 3.5 mph - 0.02 in   Unknown
4:35 PM 70.3 °F - 70.3 °F 100% 30.09 in - NNE 3.5 mph - 0.02 in   Overcast
4:55 PM 70.7 °F - 70.7 °F 100% 30.09 in - North 6.9 mph - 0.02 in   Overcast
5:15 PM 71.1 °F - 71.1 °F 100% 30.09 in - NNE 6.9 mph - N/A   Unknown
5:35 PM 71.1 °F - 71.1 °F 100% 30.10 in - NNE 8.1 mph - N/A   Unknown
5:55 PM 69.8 °F - 69.8 °F 100% 30.11 in - NNE 8.1 mph - N/A   Unknown
6:15 PM 69.8 °F - 69.8 °F 100% 30.11 in - NNE 5.8 mph - N/A   Unknown
6:55 PM 69.6 °F - 69.6 °F 100% 30.12 in - Calm Calm - N/A   Overcast
7:15 PM 69.3 °F - 69.3 °F 100% 30.12 in - Calm Calm - N/A   Unknown
7:35 PM 68.7 °F - 68.7 °F 100% 30.12 in - North 3.5 mph - N/A   Unknown
7:55 PM 68.4 °F - 68.4 °F 100% 30.13 in - Calm Calm - N/A   Unknown
8:15 PM 68.5 °F - 68.5 °F 100% 30.13 in - North 3.5 mph - N/A   Unknown
8:35 PM 68.2 °F - 68.2 °F 100% 30.13 in - Calm Calm - N/A   Unknown
8:55 PM 68.0 °F - 68.0 °F 100% 30.14 in - Calm Calm - N/A   Mostly Cloudy
9:15 PM 67.8 °F - 67.8 °F 100% 30.14 in - NNE 3.5 mph - N/A   Mostly Cloudy
9:35 PM 67.5 °F - 67.5 °F 100% 30.15 in - North 3.5 mph - N/A   Overcast
9:55 PM 66.7 °F - 66.7 °F 100% 30.15 in - Calm Calm - N/A   Unknown
10:15 PM 66.6 °F - 66.6 °F 100% 30.16 in - Calm Calm - N/A   Mostly Cloudy
10:35 PM 66.0 °F - 66.0 °F 100% 30.16 in - Calm Calm - N/A   Unknown
10:55 PM 65.3 °F - 65.3 °F 100% 30.15 in - Calm Calm - N/A   Unknown
11:15 PM 65.3 °F - 65.3 °F 100% 30.15 in - NNE 3.5 mph - N/A   Unknown
11:35 PM 64.8 °F - 64.8 °F 100% 30.15 in - Calm Calm - N/A   Unknown
11:55 PM 64.6 °F - 64.6 °F 100% 30.16 in - North 3.5 mph - N/A   Unknown